Location: Oroua River
(40.4333°S, 175.4333°E)
Time: 14:11:17
(UTC+00:00)

Cosmos 2297 Rocket - Pass Details

Date: 03 February 2023
Orbit: 838 x 844 km, 71.0° (Epoch: 30 March)

Event Time Altitude Azimuth Distance (km) Brightness Sun altitude
Rises 15:37:14 0° 200° (SSW) 3,435 5.7 -18.7°
Reaches altitude 10° 15:39:47 10° 195° (SSW) 2,493 5.0 -18.3°
Maximum altitude 15:45:23 55° 117° (ESE) 1,022 3.0 -17.5°
Drops below altitude 10° 15:50:56 10° 40° (NE) 2,461 4.6 -16.7°
Sets 15:53:25 0° 35° (NE) 3,387 5.3 -16.4°
